This is the latest recevied weather packets stored in our database for station/object I2HLY-4. If no packets are shown the sender has not sent any weather packets the latest 10 day(s).
| Time | Temp. | Humidity | Pressure | Rain* | Wind** | Luminosity | Snow |
|---|---|---|---|---|---|---|---|
| 1777639639 | 13.89° C | 49% | 1027.7 hPa | 0 mm | - | - | - |
| 1777638741 | 13.89° C | 50% | 1027.7 hPa | 0 mm | - | - | - |
| 1777636930 | 13.89° C | 52% | 1027.8 hPa | 0 mm | - | - | - |
| 1777636032 | 13.33° C | 52% | 1027.8 hPa | 0 mm | - | - | - |
| 1777635135 | 13.33° C | 52% | 1028 hPa | 0 mm | - | - | - |
| 1777634235 | 12.78° C | 54% | 1028.1 hPa | 0 mm | - | - | - |
| 1777633337 | 12.78° C | 55% | 1028.1 hPa | 0 mm | - | - | - |
| 1777632438 | 12.22° C | 53% | 1028.4 hPa | 0 mm | - | - | - |
| 1777631538 | 12.22° C | 54% | 1028.5 hPa | 0 mm | - | - | - |
| 1777630644 | 11.67° C | 54% | 1028.4 hPa | 0 mm | - | - | - |
| 1777629742 | 11.67° C | 55% | 1028.5 hPa | 0 mm | - | - | - |
| 1777628849 | 11.67° C | 54% | 1028.5 hPa | 0 mm | - | - | - |
| 1777627949 | 11.11° C | 55% | 1028.5 hPa | 0 mm | - | - | - |
| 1777627049 | 10° C | 55% | 1028.5 hPa | 0 mm | - | - | - |
| 1777626132 | 9.44° C | 58% | 1028.4 hPa | 0 mm | - | - | - |
| 1777625234 | 8.89° C | 63% | 1028.3 hPa | 0 mm | - | - | - |
| 1777624337 | 7.78° C | 63% | 1028.3 hPa | 0 mm | - | - | - |
| 1777623437 | 7.78° C | 64% | 1028.3 hPa | 0 mm | - | - | - |
| 1777622537 | 7.78° C | 59% | 1028.2 hPa | 0 mm | - | - | - |
| 1777621641 | 7.78° C | 61% | 1028 hPa | 0 mm | - | - | - |
| 1777620739 | 7.22° C | 65% | 1027.9 hPa | 0 mm | - | - | - |
| 1777619839 | 7.22° C | 66% | 1027.7 hPa | 0 mm | - | - | - |
| 1777618943 | 7.22° C | 64% | 1027.7 hPa | 0 mm | - | - | - |
| 1777618041 | 7.22° C | 70% | 1027.5 hPa | 0 mm | - | - | - |
| 1777617145 | 7.22° C | 75% | 1027.4 hPa | 0 mm | - | - | - |
* Rain latest hour (hover to see other rain measurements)
** Current wind speed in m/s (hover to see current wind gust speed)